This demonstration page uses our WeatherBlox Daily Observations layout. Learn more.

Left ArrowRight Arrow

Hourly Observations for January 10, 2017

Temp ( °F °C ) Dew Point ( °F °C ) Humidity (%) Winds ( mph kmh ) Pressure ( in mb ) Visibility ( mi km ) Precip ( " mm )
12:19 am 00:19 Mostly Clear 47 8.3 41 5 80 80 S 21 33 29.77 1008 10 16 0.00 0.00
12:52 am 00:52 Mostly Clear 48 8.9 42 5.6 80 80 S 21 33 29.76 1008 10 16 0.00 0.00
1:52 am 01:52 Clear 50 10 44 6.7 80 80 S 25 41 29.71 1006 10 16 0.00 0.00
2:52 am 02:52 Clear 50 10 44 6.7 80 80 S 22 35 29.67 1005 10 16 0.00 0.00
3:52 am 03:52 Clear 53 11.7 46 7.8 77 77 S 24 39 29.64 1004 10 16 0.00 0.00
4:52 am 04:52 Clear 54 12.2 47 8.3 77 77 S 21 33 29.63 1003 10 16 0.00 0.00
5:52 am 05:52 Mostly Clear 56 13.3 48 8.9 75 75 S 22 35 29.61 1003 10 16 0.00 0.00
6:52 am 06:52 Mostly Cloudy 59 15 49 9.4 69 69 SSW 28 44 29.61 1003 10 16 0.00 0.00
7:52 am 07:52 Sunny 60 15.6 50 10 70 70 SSW 33 54 29.62 1003 10 16 0.00 0.00
8:52 am 08:52 Mostly Sunny 61 16.1 50 10 67 67 SSW 29 46 29.62 1003 10 16 0.00 0.00
9:52 am 09:52 Mostly Sunny 65 18.3 49 9.4 56 56 SW 24 39 29.66 1004 10 16 0.00 0.00
10:52 am 10:52 Mostly Sunny 67 19.4 45 7.2 45 45 WSW 29 46 29.69 1006 10 16 0.00 0.00
11:52 am 11:52 Mostly Cloudy 66 18.9 42 5.6 42 42 W 22 35 29.72 1006 10 16 0.00 0.00
12:52 pm 12:52 Mostly Cloudy 66 18.9 40 4.4 39 39 W 25 41 29.75 1007 10 16 0.00 0.00
1:52 pm 13:52 Partly Cloudy 65 18.3 40 4.4 40 40 W 26 43 29.80 1009 10 16 0.00 0.00
2:52 pm 14:52 Sunny 64 17.8 33 0.6 32 32 WNW 16 26 29.83 1010 10 16 0.00 0.00
3:52 pm 15:52 Sunny 61 16.1 30 -1.1 31 31 WNW 14 22 29.87 1012 10 16 0.00 0.00
4:52 pm 16:52 Sunny 57 13.9 27 -2.8 32 32 W 8 13 29.91 1013 10 16 0.00 0.00
5:52 pm 17:52 Clear 55 12.8 28 -2.2 35 35 WNW 6 9 29.94 1014 10 16 0.00 0.00
6:52 pm 18:52 Clear 46 7.8 30 -1.1 54 54 NNW 7 11 29.98 1015 10 16 0.00 0.00
7:52 pm 19:52 Clear 42 5.6 29 -1.7 60 60 Calm 29.99 1016 10 16 0.00 0.00
8:52 pm 20:52 Clear 36 2.2 27 -2.8 70 70 NNE 3 6 30.00 1016 10 16 0.00 0.00
9:52 pm 21:52 Clear 36 2.2 29 -1.7 76 76 SE 6 9 30.00 1016 10 16 0.00 0.00
10:52 pm 22:52 Clear 38 3.3 30 -1.1 73 73 SE 7 11 29.98 1015 10 16 0.00 0.00
11:52 pm 23:52 Clear 40 4.4 31 -0.6 70 70 SSE 10 17 29.96 1015 10 16 0.00 0.00

Powered by AerisWeather